Other Public Products
Issued by NWS Charleston, SC

Current Version | Previous Version | Graphics & Text | Print | Product List | Glossary On
Versions: 1 2 3 4 5 6 7 8 9 10 11 12 13 14 15 16 17 18 19 20 21 22 23 24 25 26 27 28 29 30 31 32 33 34 35 36 37 38 39 40 41 42 43 44 45 46 47 48 49 50
000 FPUS82 KCHS 280627 OPUCHS TEST...KCHS/KSAV Gateway Observations...TEST National Weather Service Charleston SC 200 AM EDT FRI JUL 28 2017 NOTE: "fair" indicates few or no clouds below 12,000 feet with no significant weather and/or obstructions to visibility. SCZ050-WAZ558-NCZ071-TXZ119-213-PAZ071-DCZ001-FLZ074-172-MI076- NYZ176-178-MAZ016-IL014-TNZ027-NJZ106-GAZ044-MD014-280700- ...Gateway Observations for Charleston International... CITY SKY/WX TMP DP RH WIND PRES REMARKS Chas Airport PTCLDY 77 74 90 S6 29.92F 6HR MIN TEMP: 77; 6HR MAX TEMP: 81; Seattle CLEAR 61 54 77 N7 30.10F 6HR MIN TEMP: 61; 6HR MAX TEMP: 70; Charlotte CLOUDY 76 73 91 SW3 29.92F 6HR MIN TEMP: 76; 6HR MAX TEMP: 84; Dallas DFW MOCLDY 87 68 52 S10 29.89F HX 90 6HR MIN TEMP: 86; 6HR MAX TEMP: 97; Dallas Love MOCLDY 88 68 51 S12 29.90F HX 91 6HR MIN TEMP: 88; 6HR MAX TEMP: 98; Philladelphia PTCLDY 72 70 93 CALM 29.86S 6HR MIN TEMP: 72; 6HR MAX TEMP: 78; Wash National LGT RAIN 79 74 84 W5 29.83F 6HR MIN TEMP: 79; 6HR MAX TEMP: 83; 6HR PCP: TRACE; Baltimore MOCLDY 75 72 90 CALM 29.83F 6HR MIN TEMP: 74; 6HR MAX TEMP: 80; Miami PTCLDY 83 75 77 CALM 29.97F HX 90 6HR MIN TEMP: 83; 6HR MAX TEMP: 87; Detroit MOCLDY 67 59 75 NE8 29.94S 6HR MIN TEMP: 67; 6HR MAX TEMP: 79; Newark PTCLDY 74 69 85 W3 29.85F 6HR MIN TEMP: 73; 6HR MAX TEMP: 78; Laguardia PTCLDY 75 71 87 CALM 29.85F 6HR MIN TEMP: 75; 6HR MAX TEMP: 77; J F K NOT AVBL Boston Logan PTCLDY 67 66 97 SW8 29.83F 6HR MIN TEMP: 67; 6HR MAX TEMP: 70; Ft. Lauderdale PTCLDY 82 76 81 NW3 29.97F 6HR MIN TEMP: 82; 6HR MAX TEMP: 86; Chicago O`Hare PTCLDY 70 61 73 N9 29.94S 6HR MIN TEMP: 70; 6HR MAX TEMP: 77; Chicago Midway PTCLDY 72 64 76 N12 29.93S 6HR MIN TEMP: 72; 6HR MAX TEMP: 77; Houston Bush PTCLDY 82 75 79 S7 29.96S 6HR MIN TEMP: 82; 6HR MAX TEMP: 90; Houston Hobby PTCLDY 82 75 79 SW3 29.96S 6HR MIN TEMP: 82; 6HR MAX TEMP: 93; Nashville CLOUDY 78 72 81 W9 29.91S 6HR MIN TEMP: 78; 6HR MAX TEMP: 88; 6HR PCP: TRACE; Atlanta CLOUDY 75 72 90 SW5 29.96F 6HR MIN TEMP: 75; 6HR MAX TEMP: 78; $$ GAZ044-118-TXZ119-213-NCZ071-DCZ001-MDZ014-506-PAZ021-071-NJZ106- NYZ176-178-MAZ106-OHZ011-021-055-MIZ076-KYZ091-ILZ014-INZ047- MNZ060-ONZ431-280700- ...Gateway Observations for Savannah International... CITY SKY/WX TMP DP RH WIND PRES REMARKS Savannah Arpt CLOUDY 76 74 93 S5 29.93F 6HR MIN TEMP: 76; 6HR MAX TEMP: 82; Atlanta CLOUDY 75 72 90 SW5 29.96F 6HR MIN TEMP: 75; 6HR MAX TEMP: 78; Charlotte CLOUDY 76 73 91 SW3 29.92F 6HR MIN TEMP: 76; 6HR MAX TEMP: 84; Dallas DFW MOCLDY 87 68 52 S10 29.89F HX 90 6HR MIN TEMP: 86; 6HR MAX TEMP: 97; Houston Bush PTCLDY 82 75 79 S7 29.96S 6HR MIN TEMP: 82; 6HR MAX TEMP: 90; Wash National LGT RAIN 79 74 84 W5 29.83F 6HR MIN TEMP: 79; 6HR MAX TEMP: 83; 6HR PCP: TRACE; Wash Dulles PTCLDY 73 71 93 CALM 29.84F 6HR MIN TEMP: 73; 6HR MAX TEMP: 81; 6HR PCP: 0.07; Baltimore MOCLDY 75 72 90 CALM 29.83F 6HR MIN TEMP: 74; 6HR MAX TEMP: 80; Philadelphia PTCLDY 72 70 93 CALM 29.86S 6HR MIN TEMP: 72; 6HR MAX TEMP: 78; Newark PTCLDY 74 69 85 W3 29.85F 6HR MIN TEMP: 73; 6HR MAX TEMP: 78; Laguardia PTCLDY 75 71 87 CALM 29.85F 6HR MIN TEMP: 75; 6HR MAX TEMP: 77; J F K NOT AVBL Boston PTCLDY 67 66 97 SW8 29.83F 6HR MIN TEMP: 67; 6HR MAX TEMP: 70; Pittsburg CLOUDY 71 70 96 CALM 29.89F 6HR MIN TEMP: 71; 6HR MAX TEMP: 80; 6HR PCP: 0.51; Akron CLOUDY 70 67 90 CALM 29.89S FOG 6HR MIN TEMP: 69; 6HR MAX TEMP: 75; Cleveland MOCLDY 73 68 84 N9 29.90F 6HR MIN TEMP: 73; 6HR MAX TEMP: 80; Cincinnati CLOUDY 75 74 96 CALM 29.86F 6HR MIN TEMP: 73; 6HR MAX TEMP: 77; 6HR PCP: 0.09; Columbus CLOUDY 70 70 100 NE8 29.85F Detroit MOCLDY 67 59 75 NE8 29.94S 6HR MIN TEMP: 67; 6HR MAX TEMP: 79; Chicago O`Hare PTCLDY 70 61 73 N9 29.94S 6HR MIN TEMP: 70; 6HR MAX TEMP: 77; Minneapolis PTCLDY 71 60 68 NE5 30.04F 6HR MIN TEMP: 71; 6HR MAX TEMP: 83; Indianapolis MOCLDY 73 72 96 NW6 29.86S FOG 6HR MIN TEMP: 73; 6HR MAX TEMP: 79; 6HR PCP: 0.10; Toronto Canada PTCLDY 64 61 88 N13 29.93S $$

USA.gov is the U.S. government's official web portal to all federal, state and local government web resources and services.